Blythe, CA

8:39 AM PST on November 18, 2017 (GMT -0800)
Blythe

Weather History for KBLH - July, 2013

Change the Weather History Date:

Tuesday, July 9, 2013

  Actual Average Record
Temperature  
Mean Temperature 96 °F -  
Max Temperature 107 °F 106 °F 125 °F (1985)
Min Temperature 86 °F 78 °F 73 °F (1974)
Cooling Degree Days 31    
Growing Degree Days 46 (Base 50)    
Moisture  
Dew Point 67 °F    
Average Humidity 42    
Maximum Humidity 59    
Minimum Humidity 20    
Precipitation  
Precipitation 0.00 in - - ()
Sea Level Pressure  
Sea Level Pressure 29.84 in    
Wind  
Wind Speed 16 mph (South)    
Max Wind Speed 23 mph    
Max Gust Speed 33 mph    
Visibility 10 miles    
Events      
Averages and records for this station are not official NWS values.
T = Trace of Precipitation, MM = Missing Value Source: NWS Daily Summary

Daily Weather History Graph

Daily Weather History Graph

Search for Another Location

Airport or City:

Trip Planner

Search our weather history database for the weather conditions in past years. The results will help you decide how hot, cold, wet, or windy it might be!

Date:

Astronomy

Jul. 09, 2013 Rise Set
Actual Time 5:36 AM PDT 7:51 PM PDT
Civil Twilight 5:07 AM PDT 8:20 PM PDT
Nautical Twilight 4:32 AM PDT 8:55 PM PDT
Astronomical Twilight 3:54 AM PDT 9:33 PM PDT
Moon 6:58 AM PDT (7/9) 8:39 PM PDT (7/9)
Length of Visible Light 15h 12m
Length of Day
14h 15m
New Moon, 2% of the Moon is Illuminated
Jul 9
New Moon
Jul 15
First Quarter
Jul 22
Full
Jul 29
Last Quarter
Aug 6
New

Hourly Weather History & Observations

Time (PDT) Temp. Heat Index Dew Point Humidity Pressure Visibility Wind Dir Wind Speed Gust Speed Precip Events Conditions
12:52 AM 93.9 °F 95.2 °F 63.0 °F 36% 29.77 in 10.0 mi South 16.1 mph - N/A   Clear
1:52 AM 90.0 °F 91.7 °F 64.9 °F 43% 29.78 in 10.0 mi South 17.3 mph - N/A   Clear
2:52 AM 87.1 °F 87.8 °F 63.0 °F 44% 29.80 in 10.0 mi South 15.0 mph - N/A   Clear
3:52 AM 86.0 °F 87.3 °F 64.0 °F 48% 29.81 in 10.0 mi South 13.8 mph - N/A   Clear
4:52 AM 88.0 °F 88.7 °F 63.0 °F 43% 29.84 in 10.0 mi South 15.0 mph - N/A   Clear
5:52 AM 86.0 °F 88.8 °F 66.9 °F 53% 29.87 in 8.0 mi South 21.9 mph 32.2 mph N/A   Clear
6:52 AM 86.0 °F 90.7 °F 70.0 °F 59% 29.92 in 8.0 mi South 23.0 mph 33.4 mph N/A   Clear
7:52 AM 88.0 °F 93.8 °F 71.1 °F 57% 29.94 in 7.0 mi South 20.7 mph 26.5 mph N/A   Clear
8:52 AM 91.0 °F 96.6 °F 70.0 °F 50% 29.95 in 10.0 mi South 17.3 mph 25.3 mph N/A   Clear
9:52 AM 93.0 °F 99.0 °F 70.0 °F 47% 29.96 in 10.0 mi South 13.8 mph - N/A   Clear
10:52 AM 95.0 °F 101.3 °F 70.0 °F 44% 29.94 in 10.0 mi South 11.5 mph - N/A   Clear
11:52 AM 97.0 °F 102.8 °F 69.1 °F 40% 29.93 in 10.0 mi SSE 13.8 mph - N/A   Clear
12:52 PM 97.0 °F 102.2 °F 68.0 °F 39% 29.91 in 10.0 mi SSE 15.0 mph - N/A   Clear
1:52 PM 100.0 °F 104.9 °F 66.9 °F 34% 29.89 in 10.0 mi SSE 16.1 mph - N/A   Clear
2:52 PM 102.9 °F 106.8 °F 64.9 °F 29% 29.86 in 10.0 mi SSE 12.7 mph 19.6 mph N/A   Clear
3:52 PM 104.0 °F 105.3 °F 61.0 °F 24% 29.83 in 10.0 mi South 12.7 mph - N/A   Clear
4:52 PM 106.0 °F 105.8 °F 57.0 °F 20% 29.79 in 10.0 mi SSE 12.7 mph - N/A   Clear
5:52 PM 102.9 °F 109.1 °F 68.0 °F 32% 29.77 in 10.0 mi SSE 19.6 mph - N/A   Clear
6:52 PM 99.0 °F 104.2 °F 68.0 °F 36% 29.76 in 9.0 mi South 15.0 mph - N/A   Clear
7:52 PM 96.1 °F 101.0 °F 68.0 °F 40% 29.76 in 10.0 mi South 12.7 mph - N/A   Clear
8:52 PM 93.9 °F 98.6 °F 68.0 °F 43% 29.76 in 10.0 mi South 13.8 mph - N/A   Clear
9:52 PM 91.9 °F 95.9 °F 68.0 °F 45% 29.78 in 10.0 mi South 13.8 mph - N/A   Clear
10:52 PM 90.0 °F 94.5 °F 69.1 °F 50% 29.79 in 10.0 mi South 15.0 mph - N/A   Clear
11:52 PM 88.0 °F 91.4 °F 68.0 °F 51% 29.81 in 10.0 mi South 16.1 mph - N/A   Clear